Weather History for KRCZ - May, 2013

Change the Weather History Date:

Sunday, May 26, 2013

  Actual Average (KHFF) Record (KHFF)
Temperature  
Mean Temperature 66 °F -  
Max Temperature 74 °F 81 °F 92 °F (2011)
Min Temperature 57 °F 61 °F 52 °F (2008)
Growing Degree Days 16 (Base 50)    
Moisture  
Dew Point 45 °F    
Average Humidity 50    
Maximum Humidity 78    
Minimum Humidity 32    
Precipitation  
Precipitation 0.00 in - - ()
Sea Level Pressure  
Sea Level Pressure 30.22 in    
Wind  
Wind Speed 3 mph (North)    
Max Wind Speed 8 mph    
Max Gust Speed -    
Visibility 10 miles    
Events Rain    
Averages and records for this station are not official NWS values.
T = Trace of Precipitation, MM = Missing Value Source: NWS Daily Summary

Daily Weather History Graph

Daily Weather History Graph

Search for Another Location

Airport or City:

Trip Planner

Search our weather history database for the weather conditions in past years. The results will help you decide how hot, cold, wet, or windy it might be!

Date:

Astronomy

May. 26, 2013 Rise Set
Actual Time 6:08 AM EDT 8:23 PM EDT
Civil Twilight 5:40 AM EDT 8:52 PM EDT
Nautical Twilight 5:04 AM EDT 9:27 PM EDT
Astronomical Twilight 4:26 AM EDT 10:06 PM EDT
Moon 10:10 PM EDT (5/26) 7:35 AM EDT (5/26)
Length of Visible Light 15h 12m
Length of Day
14h 14m
Waning Gibbous, 97% of the Moon is Illuminated
May 26
Waning Gibbous
May 31
Last Quarter
Jun 8
New
Jun 16
First Quarter
Jun 23
Full

Hourly Weather History & Observations

Time (EDT) Temp. Dew Point Humidity Pressure Visibility Wind Dir Wind Speed Gust Speed Precip Events Conditions
12:15 AM 60.6 °F 47.7 °F 62% 30.17 in 10.0 mi Calm Calm - N/A   Clear
12:35 AM 62.2 °F 46.9 °F 57% 30.17 in 10.0 mi Calm Calm - N/A   Clear
12:55 AM 61.0 °F 47.1 °F 60% 30.17 in 10.0 mi Calm Calm - N/A   Clear
1:15 AM 59.0 °F 49.3 °F 70% 30.19 in 10.0 mi North 8.1 mph - N/A   Clear
1:35 AM 58.1 °F 50.4 °F 75% 30.19 in 10.0 mi Calm Calm - N/A   Clear
1:55 AM 57.0 °F 50.2 °F 78% 30.19 in 10.0 mi Calm Calm - N/A   Clear
2:15 AM 58.1 °F 49.5 °F 73% 30.19 in 10.0 mi NNE 4.6 mph - N/A   Clear
2:35 AM 59.2 °F 47.5 °F 65% 30.19 in 10.0 mi NNE 4.6 mph - N/A   Clear
2:55 AM 59.0 °F 46.6 °F 63% 30.19 in 10.0 mi NNE 5.8 mph - N/A   Scattered Clouds
3:15 AM 59.0 °F 45.5 °F 61% 30.20 in 10.0 mi NNE 3.5 mph - N/A   Mostly Cloudy
3:35 AM 59.0 °F 44.2 °F 58% 30.20 in 10.0 mi NNE 5.8 mph - N/A   Overcast
3:55 AM 59.0 °F 42.4 °F 54% 30.20 in 10.0 mi NNE 6.9 mph - N/A   Overcast
4:15 AM 59.0 °F 40.5 °F 50% 30.19 in 10.0 mi NNE 6.9 mph - N/A   Overcast
4:35 AM 59.0 °F 39.6 °F 49% 30.20 in 10.0 mi NNE 4.6 mph - N/A   Mostly Cloudy
4:55 AM 58.6 °F 38.5 °F 47% 30.20 in 10.0 mi North 3.5 mph - N/A   Scattered Clouds
5:15 AM 58.3 °F 38.7 °F 48% 30.20 in 10.0 mi North 5.8 mph - N/A   Mostly Cloudy
5:35 AM 58.1 °F 38.8 °F 49% 30.21 in 10.0 mi North 4.6 mph - N/A   Scattered Clouds
5:55 AM 58.1 °F 39.2 °F 49% 30.22 in 10.0 mi North 3.5 mph - N/A   Mostly Cloudy
6:15 AM 58.1 °F 39.9 °F 51% 30.23 in 10.0 mi North 4.6 mph - N/A   Scattered Clouds
6:35 AM 58.1 °F 40.3 °F 52% 30.24 in 10.0 mi NNE 4.6 mph - N/A   Mostly Cloudy
6:55 AM 58.5 °F 41.0 °F 52% 30.26 in 10.0 mi North 3.5 mph - N/A   Overcast
7:15 AM 58.5 °F 41.9 °F 54% 30.25 in 10.0 mi NNE 3.5 mph - N/A   Overcast
7:35 AM 58.6 °F 42.4 °F 55% 30.26 in 10.0 mi North 3.5 mph - N/A   Mostly Cloudy
7:55 AM 59.9 °F 43.3 °F 54% 30.27 in 10.0 mi Calm Calm - N/A   Mostly Cloudy
8:15 AM 59.4 °F 42.6 °F 54% 30.28 in 10.0 mi North 4.6 mph - N/A   Mostly Cloudy
8:35 AM 59.0 °F 44.2 °F 58% 30.28 in 10.0 mi Calm Calm - N/A Rain Light Rain
8:55 AM 58.5 °F 46.6 °F 65% 30.29 in 10.0 mi Calm Calm - N/A Rain Light Rain
9:15 AM 59.0 °F 47.7 °F 66% 30.28 in 10.0 mi NE 3.5 mph - N/A   Mostly Cloudy
9:35 AM 59.9 °F 47.8 °F 64% 30.29 in 10.0 mi NE 3.5 mph - N/A   Overcast
9:55 AM 62.4 °F 45.5 °F 54% 30.28 in 10.0 mi NE 5.8 mph - N/A   Mostly Cloudy
10:15 AM 63.1 °F 43.3 °F 48% 30.28 in 10.0 mi NE 5.8 mph - N/A   Scattered Clouds
10:35 AM 63.9 °F 43.2 °F 47% 30.28 in 10.0 mi NE 3.5 mph - N/A   Scattered Clouds
10:55 AM 64.6 °F 42.1 °F 44% 30.28 in 10.0 mi NE 4.6 mph - N/A   Mostly Cloudy
11:15 AM 65.1 °F 41.7 °F 42% 30.28 in 10.0 mi NE 4.6 mph - N/A   Overcast
11:35 AM 66.2 °F 42.6 °F 42% 30.28 in 10.0 mi ENE 3.5 mph - N/A   Overcast
11:55 AM 66.9 °F 43.7 °F 43% 30.27 in 10.0 mi Calm Calm - N/A   Overcast
12:15 PM 67.8 °F 40.8 °F 37% 30.27 in 10.0 mi Calm Calm - N/A   Mostly Cloudy
12:35 PM 68.2 °F 41.9 °F 38% 30.26 in 10.0 mi South 3.5 mph - N/A   Scattered Clouds
12:55 PM 69.1 °F 39.0 °F 33% 30.26 in 10.0 mi NNW 4.6 mph - N/A   Mostly Cloudy
1:15 PM 69.6 °F 40.3 °F 34% 30.26 in 10.0 mi North 3.5 mph - N/A   Overcast
1:35 PM 68.7 °F 40.5 °F 36% 30.25 in 10.0 mi NW 4.6 mph - N/A   Overcast
1:55 PM 69.6 °F 42.3 °F 37% 30.25 in 10.0 mi NW 4.6 mph - N/A   Overcast
2:15 PM 70.0 °F 40.1 °F 34% 30.25 in 10.0 mi NNW 5.8 mph - N/A   Overcast
2:35 PM 70.3 °F 41.0 °F 34% 30.24 in 10.0 mi West 3.5 mph - N/A   Overcast
2:55 PM 70.9 °F 41.2 °F 34% 30.23 in 10.0 mi West 5.8 mph - N/A   Mostly Cloudy
3:15 PM 71.1 °F 40.1 °F 32% 30.22 in 10.0 mi Calm Calm - N/A   Scattered Clouds
3:35 PM 71.2 °F 41.7 °F 34% 30.22 in 10.0 mi Calm Calm - N/A   Clear
3:55 PM 72.7 °F 43.7 °F 35% 30.21 in 10.0 mi West 6.9 mph - N/A   Clear
4:15 PM 73.4 °F 44.6 °F 36% 30.21 in 10.0 mi West 3.5 mph - N/A   Clear
4:35 PM 74.1 °F 44.8 °F 35% 30.20 in 10.0 mi WSW 5.8 mph - N/A   Clear
4:55 PM 73.6 °F 44.4 °F 35% 30.20 in 10.0 mi NW 3.5 mph - N/A   Clear
5:15 PM 73.9 °F 44.6 °F 35% 30.19 in 10.0 mi NW 5.8 mph - N/A   Clear
5:35 PM 74.7 °F 45.5 °F 35% 30.19 in 10.0 mi NNW 3.5 mph - N/A   Clear
5:55 PM 74.3 °F 44.6 °F 35% 30.19 in 10.0 mi NW 3.5 mph - N/A   Clear
6:15 PM 74.3 °F 44.8 °F 35% 30.19 in 10.0 mi North 5.8 mph - N/A   Clear
6:35 PM 73.9 °F 45.3 °F 36% 30.19 in 10.0 mi Calm Calm - N/A   Clear
6:55 PM 73.9 °F 45.9 °F 37% 30.19 in 10.0 mi Calm Calm - N/A   Clear
7:15 PM 73.4 °F 46.0 °F 38% 30.19 in 10.0 mi NNW 3.5 mph - N/A   Clear
7:35 PM 72.5 °F 47.1 °F 40% 30.19 in 10.0 mi Calm Calm - N/A   Clear
7:55 PM 71.6 °F 48.7 °F 44% 30.20 in 10.0 mi Calm Calm - N/A   Clear
8:15 PM 69.3 °F 49.5 °F 49% 30.20 in 10.0 mi Calm Calm - N/A   Clear
8:35 PM 67.1 °F 52.5 °F 59% 30.21 in 10.0 mi Calm Calm - N/A   Clear
8:55 PM 67.8 °F 48.6 °F 50% 30.20 in 10.0 mi Calm Calm - N/A   Clear
9:15 PM 65.1 °F 53.2 °F 65% 30.21 in 10.0 mi Calm Calm - N/A   Clear
9:35 PM 64.8 °F 49.8 °F 58% 30.21 in 10.0 mi Calm Calm - N/A   Clear
9:55 PM 66.0 °F 48.7 °F 54% 30.21 in 10.0 mi East 3.5 mph - N/A   Clear
10:15 PM 62.6 °F 52.3 °F 69% 30.22 in 10.0 mi Calm Calm - N/A   Clear
10:35 PM 63.0 °F 48.9 °F 60% 30.22 in 10.0 mi East 3.5 mph - N/A   Clear
10:55 PM 62.2 °F 49.3 °F 63% 30.23 in 10.0 mi East 3.5 mph - N/A   Clear
11:15 PM 63.0 °F 48.2 °F 59% 30.23 in 10.0 mi East 3.5 mph - N/A   Clear
11:35 PM 62.1 °F 48.9 °F 62% 30.22 in 10.0 mi Calm Calm - N/A   Clear
11:55 PM 62.1 °F 48.0 °F 60% 30.23 in 10.0 mi Calm Calm - N/A   Clear